DW4174 Weather Reports


Display with metric or nautical units.
time (UTC)temp
F
wind
direction
speed
MPH
gust
MPH
rain 1hr
in
rain 24hr
in
rain mn
in
humidity
%
barometer
mb
20260903111925 85 122 1.0 3.0 0.00 0.00 0.00 54 1010.6
20260903111024 85 122 1.0 2.0 0.00 0.00 0.00 54 1010.5
20260903110125 85 123 0.0 2.0 0.00 0.00 0.00 54 1010.5
20260903105225 84 0 0.0 0.0 0.00 0.00 0.00 54 1010.5
20260903103424 85 123 0.0 2.0 0.00 0.00 0.00 52 1010.4
20260903102524 85 122 0.0 1.0 0.00 0.00 0.00 52 1010.4
20260903101624 85 122 0.0 1.0 0.00 0.00 0.00 51 1010.3
20260903100724 86 123 1.0 3.0 0.00 0.00 0.00 51 1010.4
20260903095824 85 127 0.0 3.0 0.00 0.00 0.00 51 1010.5
20260903094024 85 163 0.0 2.0 0.00 0.00 0.00 52 1010.5
20260903091324 86 164 0.0 2.0 0.00 0.00 0.00 51 1010.4
20260903090424 86 164 0.0 1.0 0.00 0.00 0.00 51 1010.3
20260903085524 86 164 0.0 4.0 0.00 0.00 0.00 50 1010.2
20260903084624 87 163 0.0 1.0 0.00 0.00 0.00 50 1010.3
20260903081924 88 163 0.0 4.0 0.00 0.00 0.00 49 1010.3
20260903081024 88 162 0.0 4.0 0.00 0.00 0.00 48 1010.3
20260903080124 88 162 0.0 1.0 0.00 0.00 0.00 48 1010.4
20260903075224 89 161 1.0 4.0 0.00 0.00 0.00 47 1010.3
20260903074324 89 161 1.0 2.0 0.00 0.00 0.00 47 1010.3
20260903073424 90 161 0.0 4.0 0.00 0.00 0.00 46 1010.4
20260903072524 90 161 1.0 2.0 0.00 0.00 0.00 44 1010.3
20260903071624 90 162 1.0 4.0 0.00 0.00 0.00 40 1010.3
20260903070724 91 184 1.0 4.0 0.00 0.00 0.00 34 1010.3
20260903065824 91 286 2.0 4.0 0.00 0.00 0.00 27 1010.2
20260903064924 92 284 2.0 6.0 0.00 0.00 0.00 27 1010.0
20260903064024 92 272 2.0 7.0 0.00 0.00 0.00 27 1010.0
20260903063124 92 276 2.0 7.0 0.00 0.00 0.00 27 1009.9
20260903062224 93 273 3.0 4.0 0.00 0.00 0.00 27 1009.9
20260903061324 93 267 4.0 7.0 0.00 0.00 0.00 28 1010.0
20260903060424 93 263 4.0 8.0 0.00 0.00 0.00 29 1010.0
20260903055524 93 262 3.0 8.0 0.00 0.00 0.00 32 1009.9
20260903054624 93 262 4.0 8.0 0.00 0.00 0.00 35 1009.9
20260903052824 93 274 1.0 3.0 0.00 0.00 0.00 39 1010.1
20260903051924 93 272 1.0 3.0 0.00 0.00 0.00 38 1010.0
20260903051024 94 269 2.0 4.0 0.00 0.00 0.00 37 1010.0
20260903050124 94 270 2.0 4.0 0.00 0.00 0.00 37 1010.0
20260903045224 94 269 2.0 4.0 0.00 0.00 0.00 37 1010.0
20260903044324 94 259 2.0 7.0 0.00 0.00 0.00 37 1010.0
20260903043424 95 272 3.0 6.0 0.00 0.00 0.00 37 1010.0
20260903041624 95 257 3.0 7.0 0.00 0.00 0.00 36 1009.9
20260903035824 96 272 3.0 8.0 0.00 0.00 0.00 36 1009.8
20260903034024 96 275 4.0 8.0 0.00 0.00 0.00 34 1009.5
20260903033124 96 272 3.0 8.0 0.00 0.00 0.00 34 1009.4
20260903032224 96 273 2.0 7.0 0.00 0.00 0.00 33 1009.3
20260903031324 96 282 3.0 4.0 0.00 0.00 0.00 33 1009.3
20260903030424 96 273 4.0 7.0 0.00 0.00 0.00 32 1009.3
20260903025524 97 264 4.0 9.0 0.00 0.00 0.00 32 1009.2
20260903023724 97 266 5.0 9.0 0.00 0.00 0.00 32 1009.0
20260903022824 97 270 6.0 9.0 0.00 0.00 0.00 31 1009.0
20260903021924 97 268 5.0 11.0 0.00 0.00 0.00 31 1008.9
20260903021024 98 270 5.0 9.0 0.00 0.00 0.00 32 1008.7
20260903020124 98 277 5.0 9.0 0.00 0.00 0.00 32 1008.6
20260903015224 98 286 6.0 9.0 0.00 0.00 0.00 32 1008.6
20260903013424 99 266 5.0 12.0 0.00 0.00 0.00 31 1008.5
20260903011624 100 294 7.0 13.0 0.00 0.00 0.00 30 1008.4
20260903010724 100 282 7.0 11.0 0.00 0.00 0.00 30 1008.5
20260903005824 101 276 5.0 13.0 0.00 0.00 0.00 29 1008.4
20260903004924 100 291 6.0 12.0 0.00 0.00 0.00 30 1008.4
20260903004024 101 298 5.0 12.0 0.00 0.00 0.00 29 1008.4
20260903003124 101 265 6.0 11.0 0.00 0.00 0.00 28 1008.5
20260903002224 102 276 7.0 12.0 0.00 0.00 0.00 28 1008.5
20260903000424 103 262 5.0 12.0 0.00 0.00 0.00 27 1008.6
20260902235524 103 281 6.0 12.0 0.00 0.00 0.00 27 1008.7
20260902234624 103 253 4.0 12.0 0.00 0.00 0.00 27 1008.7
20260902233723 103 277 3.0 10.0 0.00 0.00 0.00 27 1008.8
20260902232824 103 273 6.0 11.0 0.00 0.00 0.00 26 1008.9
20260902231924 103 268 4.0 12.0 0.00 0.00 0.00 26 1009.1
20260902231023 104 256 5.0 11.0 0.00 0.00 0.00 25 1009.2
20260902230123 103 270 4.0 14.0 0.00 0.00 0.00 26 1009.3
20260902223424 103 246 5.0 11.0 0.00 0.00 0.00 25 1009.6
20260902221623 105 285 2.0 13.0 0.00 0.00 0.00 25 1009.9
20260902220724 103 300 3.0 4.0 0.00 0.00 0.00 26 1009.8
20260902215824 103 260 5.0 7.0 0.00 0.00 0.00 26 1010.0
20260902214923 104 288 6.0 12.0 0.00 0.00 0.00 25 1010.2
20260902214023 105 283 7.0 13.0 0.00 0.00 0.00 24 1010.2
20260902213123 105 259 6.0 14.0 0.00 0.00 0.00 24 1010.2
20260902212224 104 184 5.0 10.0 0.00 0.00 0.00 25 1010.4
20260902210423 104 267 5.0 10.0 0.00 0.00 0.00 26 1010.6
20260902205523 104 191 6.0 11.0 0.00 0.00 0.00 26 1010.9
20260902204623 103 193 4.0 12.0 0.00 0.00 0.00 27 1011.0
20260902203723 103 257 4.0 9.0 0.00 0.00 0.00 27 1011.1
20260902202823 104 254 4.0 11.0 0.00 0.00 0.00 27 1011.3
20260902201924 102 257 4.0 10.0 0.00 0.00 0.00 28 1011.5
20260902201023 103 290 4.0 10.0 0.00 0.00 0.00 27 1011.6
20260902200123 102 218 5.0 10.0 0.00 0.00 0.00 28 1011.9
20260902195223 102 178 5.0 12.0 0.00 0.00 0.00 28 1012.0
20260902194323 103 215 3.0 10.0 0.00 0.00 0.00 27 1012.1
20260902193423 101 151 3.0 10.0 0.00 0.00 0.00 30 1012.2
20260902192523 101 169 4.0 10.0 0.00 0.00 0.00 30 1012.4
20260902191623 102 243 5.0 10.0 0.00 0.00 0.00 29 1012.5
20260902185823 99 159 5.0 11.0 0.00 0.00 0.00 32 1012.8
20260902184923 100 194 5.0 11.0 0.00 0.00 0.00 30 1013.0
20260902184023 100 175 4.0 14.0 0.00 0.00 0.00 30 1013.1
20260902183123 100 206 6.0 10.0 0.00 0.00 0.00 30 1013.2
20260902182223 99 176 6.0 17.0 0.00 0.00 0.00 31 1013.2
20260902181323 99 197 5.0 11.0 0.00 0.00 0.00 30 1013.4
20260902180423 98 184 5.0 12.0 0.00 0.00 0.00 32 1013.4
20260902174623 98 188 4.0 11.0 0.00 0.00 0.00 34 1013.5
20260902173723 98 173 4.0 13.0 0.00 0.00 0.00 31 1013.6
20260902172823 98 186 3.0 15.0 0.00 0.00 0.00 31 1013.6
20260902171923 96 189 4.0 8.0 0.00 0.00 0.00 37 1013.6
20260902171023 96 205 3.0 9.0 0.00 0.00 0.00 38 1013.6
20260902170123 96 182 2.0 8.0 0.00 0.00 0.00 39 1013.5
20260902165223 95 182 3.0 7.0 0.00 0.00 0.00 41 1013.6
20260902163423 93 194 3.0 7.0 0.00 0.00 0.00 46 1013.7
20260902162523 93 174 2.0 9.0 0.00 0.00 0.00 45 1013.7
20260902160723 92 173 3.0 8.0 0.00 0.00 0.00 49 1013.7
20260902155823 91 155 4.0 9.0 0.00 0.00 0.00 49 1013.6
20260902154923 91 154 3.0 9.0 0.00 0.00 0.00 51 1013.4
20260902154023 90 160 3.0 6.0 0.00 0.00 0.00 52 1013.5
20260902153123 90 161 3.0 8.0 0.00 0.00 0.00 53 1013.5
20260902152223 89 175 2.0 6.0 0.00 0.00 0.00 55 1013.4
20260902151323 88 122 3.0 8.0 0.00 0.00 0.00 55 1013.4
20260902150423 88 128 2.0 8.0 0.00 0.00 0.00 55 1013.3
20260902145523 87 127 2.0 5.0 0.00 0.00 0.00 56 1013.3
20260902144623 87 157 1.0 7.0 0.00 0.00 0.00 57 1013.3
20260902143723 86 154 2.0 3.0 0.00 0.00 0.00 58 1013.3
20260902142823 86 149 1.0 6.0 0.00 0.00 0.00 59 1013.3
20260902141923 86 115 1.0 6.0 0.00 0.00 0.00 59 1013.3
20260902140123 85 110 0.0 3.0 0.00 0.00 0.00 61 1013.0
20260902135223 84 111 0.0 3.0 0.00 0.00 0.00 62 1012.8
20260902134323 84 111 0.0 2.0 0.00 0.00 0.00 62 1012.7
20260902133423 83 0 0.0 0.0 0.00 0.00 0.00 63 1012.6
20260902132523 83 108 1.0 3.0 0.00 0.00 0.00 63 1012.5
20260902131623 83 109 1.0 3.0 0.00 0.00 0.00 63 1012.4
20260902130723 83 110 1.0 3.0 0.00 0.00 0.00 63 1012.4
20260902124923 84 110 1.0 4.0 0.00 0.00 0.00 62 1012.2
20260902124022 84 104 2.0 4.0 0.00 0.00 0.00 61 1012.1
20260902123122 84 96 1.0 3.0 0.00 0.00 0.00 61 1011.9
20260902122223 84 95 1.0 3.0 0.00 0.00 0.00 61 1011.9
20260902121322 84 94 2.0 4.0 0.00 0.00 0.00 60 1011.9
20260902120422 84 93 2.0 4.0 0.00 0.00 0.00 60 1011.8
20260902114623 85 113 1.0 4.0 0.00 0.00 0.00 59 1011.8
20260902113722 85 108 1.0 3.0 0.00 0.00 0.00 59 1011.8